Wind_Speed
12 12 12 11 11 10 8 8 8 7 5 7 7 4 3 3 6 3 3 5 5 5 7 9 10 10 9 9 8 7 7 8 7 7 8 8 7 8 8 10 12 14 16 17 18 18 19 19 18 17 17 18 18 18 18 17 17 17 17 17 17 16 16 16 16 16 16 16 16 16 16 15 14 13 14 13 13 12 12 12 11 11 11 10 10
9 11 12 10 10 9 8 8 7 6 5 5 5 5 3 3 5 2 1 4 4 5 7 9 10 9 9 9 7 6 6 6 6 6 7 8 7 6 7 9 11 14 15 17 18 18 19 19 19 18 17 18 18 19 19 18 18 18 18 18 18 17 17 17 17 17 17 17 17 17 17 16 15 15 15 14 14 13 13 13 13 12 12 11 11
8 9 12 11 9 8 7 8 7 6 5 5 5 4 4 3 3 4 3 5 5 6 7 8 8 6 7 8 7 7 6 4 3 3 5 7 5 4 7 8 10 12 15 17 18 18 19 20 20 19 18 18 18 19 20 19 18 19 19 19 19 19 18 18 18 18 19 18 18 18 17 16 17 16 16 16 15 15 15 14 14 13 13 13 12
11 11 12 11 9 8 8 8 7 5 5 5 4 3 5 8 3 4 5 5 7 7 7 9 10 6 5 7 6 6 5 3 2 3 4 4 2 4 7 8 10 12 14 16 18 19 20 20 21 20 19 19 19 19 20 20 19 19 20 20 19 19 19 19 18 19 20 20 20 18 18 18 18 17 17 17 17 17 17 16 16 15 15 14 14
13 12 11 9 7 8 9 8 7 6 6 5 3 2 3 6 5 7 8 8 9 8 4 9 11 6 4 4 7 6 4 2 3 4 3 3 4 5 7 8 9 12 13 15 18 20 21 21 21 21 21 20 20 20 20 21 20 20 20 20 20 19 19 20 20 19 19 20 21 20 20 20 19 18 18 18 18 18 18 18 18 17 17 16 15
14 12 11 9 8 9 9 8 7 7 6 4 3 3 3 4 5 7 8 10 11 10 8 4 8 6 2 2 6 5 3 2 3 5 3 4 5 6 7 8 9 10 12 14 16 19 22 23 22 22 22 22 21 21 21 21 21 21 21 21 20 20 20 20 20 20 18 18 20 21 21 21 20 20 19 19 19 19 19 19 19 18 18 18 17
13 11 10 10 9 9 9 8 7 7 7 5 4 4 4 6 5 4 4 8 9 10 7 3 10 13 7 6 3 3 3 0 3 5 4 4 3 4 7 9 11 10 11 12 15 17 20 23 23 23 22 22 22 22 22 22 22 22 22 22 21 21 21 20 20 20 20 19 19 20 21 21 21 21 20 20 20 20 20 20 20 20 19 19 18
13 12 10 10 11 11 11 9 7 7 7 6 5 5 5 6 4 3 5 4 5 7 5 3 7 17 14 9 10 7 4 1 2 4 4 3 2 3 4 8 11 11 11 12 13 16 18 20 23 24 22 22 23 22 22 22 23 23 22 23 22 22 21 21 21 21 20 20 20 20 21 21 20 20 20 20 20 21 21 20 20 20 20 19 19
14 13 11 10 11 11 10 10 8 7 7 7 6 5 5 5 3 3 4 6 8 6 2 6 1 16 16 9 12 12 6 5 5 2 3 2 1 2 1 4 9 10 11 12 12 14 16 18 21 23 23 23 23 23 23 23 24 23 23 23 23 23 22 21 21 21 21 21 21 20 21 21 20 20 20 20 20 20 20 20 20 19 19 20 19
14 14 13 12 12 11 9 9 9 9 8 7 6 4 5 4 5 4 3 5 7 9 7 7 4 9 13 10 10 9 7 6 5 2 3 3 1 2 1 2 6 8 10 11 12 12 14 16 19 22 22 23 23 24 24 24 24 24 24 24 24 24 24 23 22 22 22 22 22 21 21 22 22 22 22 22 22 21 21 21 21 21 20 20 20
15 14 14 13 12 10 9 8 9 9 8 7 6 5 5 4 6 5 4 6 6 8 8 6 4 6 10 10 9 7 8 7 3 1 4 3 2 1 1 2 4 7 10 10 11 12 13 14 17 21 22 23 24 24 25 25 26 25 25 25 25 25 25 25 25 25 24 24 24 24 23 24 24 24 24 24 24 24 24 24 23 23 22 22 22
15 15 15 13 11 10 10 9 8 8 7 7 7 5 5 4 5 4 4 6 7 7 7 6 3 7 9 9 8 5 6 6 3 2 5 4 3 4 4 4 4 7 11 12 11 12 13 13 15 19 21 22 24 25 26 26 27 26 26 26 26 26 26 26 26 26 26 26 26 25 25 25 26 26 25 24 24 25 26 26 26 25 25 24 24
16 15 15 14 12 11 11 11 10 9 9 8 6 4 3 4 5 5 5 6 6 6 6 6 3 7 7 5 6 2 2 3 2 1 3 3 3 5 6 7 5 7 11 12 12 14 14 14 15 17 18 19 22 24 26 27 27 27 27 27 27 27 28 27 27 27 26 26 27 26 26 26 25 25 24 23 23 23 24 25 26 26 26 26 26
16 16 15 14 14 12 11 11 11 10 10 9 6 4 5 5 6 6 6 6 6 6 6 5 3 6 5 3 5 3 2 2 3 2 2 3 2 4 7 8 7 7 10 12 13 14 14 15 16 17 18 18 19 22 25 27 27 27 28 28 28 28 28 28 27 27 26 26 26 26 26 25 25 24 24 24 23 23 24 25 26 26 27 27 26
16 16 14 14 14 13 11 11 12 11 10 9 8 7 7 7 6 7 6 5 6 5 5 6 1 7 5 2 2 1 2 2 5 4 3 3 4 4 6 8 8 7 9 12 14 14 13 14 15 16 17 18 18 19 21 25 26 27 28 28 29 28 28 27 27 26 26 25 25 25 25 25 24 24 24 24 24 25 25 26 26 27 27 27 27
16 16 14 14 15 14 12 12 13 13 11 11 10 9 9 8 8 7 5 4 7 6 5 7 1 5 4 2 1 0 1 1 4 6 4 3 5 5 5 8 9 7 8 12 13 14 14 14 15 16 17 18 19 19 19 21 23 25 26 27 28 29 28 27 26 26 26 26 26 26 26 25 25 25 25 25 26 26 27 27 27 27 27 27 27
16 16 15 15 15 15 14 13 13 13 13 13 12 11 10 10 9 6 5 5 7 6 5 6 2 3 2 3 2 1 2 1 2 3 3 4 5 5 5 6 8 6 9 12 12 14 15 14 15 16 16 17 19 21 20 19 19 20 22 23 25 27 28 28 27 26 26 26 26 26 26 26 26 26 25 26 27 27 27 28 28 28 28 28 28
16 16 16 16 16 17 16 14 13 13 14 13 12 12 10 9 8 7 7 7 5 3 5 5 4 2 2 3 3 3 4 3 2 1 2 4 4 5 6 5 7 6 9 12 12 14 15 14 15 16 16 17 17 18 18 18 18 19 20 21 21 23 25 26 27 26 26 26 25 25 25 26 26 26 25 26 27 27 27 27 27 27 27 28 28
17 17 17 17 17 17 17 17 15 14 14 14 13 12 10 9 9 8 7 4 2 2 4 5 5 3 2 3 2 3 3 3 3 1 1 1 2 5 8 7 6 7 8 11 14 15 13 12 14 14 15 16 16 16 16 16 17 17 18 18 18 19 21 23 24 25 25 25 25 24 25 25 25 25 25 26 25 26 26 25 25 25 26 26 25
18 18 18 17 17 17 17 18 17 15 14 14 14 12 11 10 9 8 7 4 2 4 6 5 6 5 3 3 4 4 3 3 4 3 2 1 2 3 6 7 8 9 8 9 13 15 12 11 12 13 14 15 15 16 16 16 16 15 16 17 16 15 16 18 20 22 24 24 24 24 24 24 24 24 24 24 24 24 24 24 24 24 24 23 23
18 18 18 17 17 17 17 18 17 17 15 14 14 13 12 12 10 8 7 7 7 7 8 7 7 6 3 3 3 5 5 5 6 6 4 1 2 1 2 4 7 10 11 11 13 14 12 11 12 13 13 14 14 15 15 15 15 15 15 16 16 15 15 16 17 18 20 22 23 23 23 23 22 22 22 22 23 23 22 22 22 21 21 21 21
18 18 18 18 18 18 17 17 17 17 16 15 15 14 14 13 11 9 8 9 9 9 9 8 8 7 4 3 3 3 5 4 6 6 4 3 3 3 4 3 5 8 10 12 13 13 12 11 12 12 13 14 14 13 12 13 13 13 14 16 16 15 15 15 15 16 17 18 20 21 21 21 20 20 20 20 21 21 21 21 20 20 20 20 19
17 17 18 18 18 18 18 18 17 17 17 16 16 15 14 13 11 11 11 12 11 10 9 8 7 7 5 5 5 5 6 5 4 6 4 3 3 4 4 4 6 8 9 9 11 12 12 11 11 12 12 13 13 12 11 12 12 12 13 15 15 13 12 12 13 14 15 16 17 18 19 19 19 18 18 19 19 20 20 20 20 20 20 19 19
14 16 18 18 19 19 19 18 18 17 18 17 17 15 14 12 11 12 12 13 13 11 10 8 7 7 6 7 7 7 6 5 5 6 5 5 4 3 4 4 4 7 10 10 10 11 13 13 13 12 12 11 11 12 12 11 11 12 12 12 12 11 11 10 10 11 13 15 15 16 17 17 17 17 17 18 18 19 20 20 20 20 19 19 19
15 15 17 17 18 20 20 19 19 19 18 17 17 16 15 12 10 10 10 11 12 11 10 8 8 8 7 7 8 8 7 8 7 6 7 8 7 5 6 5 4 5 8 9 9 9 11 13 13 12 12 11 10 11 12 11 11 11 12 12 10 10 11 10 10 11 12 13 14 14 15 15 15 16 17 17 18 18 19 19 19 18 18 18 17
17 16 17 18 18 19 19 19 19 19 18 18 17 15 14 12 10 9 9 7 8 9 8 8 8 9 8 8 9 8 8 9 9 9 9 9 9 7 5 4 5 5 5 6 8 7 7 9 11 11 11 11 10 11 11 11 11 11 12 12 10 10 10 10 10 11 12 12 13 13 14 14 14 15 16 17 18 18 18 18 18 17 16 16 16
19 18 18 19 18 18 19 20 20 19 18 18 17 14 13 13 12 11 9 7 7 8 8 8 9 9 10 9 9 9 9 9 9 11 11 9 9 8 4 2 3 4 3 5 7 6 5 6 9 10 10 11 11 11 11 11 12 12 12 11 10 9 10 10 9 10 11 12 12 13 13 14 14 14 16 18 18 17 16 15 15 15 16 16 17
18 19 19 19 20 20 20 20 20 21 19 17 16 15 14 13 13 13 11 9 8 8 8 9 10 10 10 10 10 10 10 10 10 11 11 10 9 8 7 5 3 1 2 3 3 2 2 4 6 8 9 10 11 10 9 10 10 11 13 12 10 10 10 10 9 9 10 11 12 13 13 13 14 14 16 16 14 12 12 12 13 14 15 15 15
17 19 19 20 20 20 19 19 20 22 21 18 18 17 15 14 14 14 13 11 10 9 9 10 10 10 10 10 11 11 11 11 11 10 10 10 9 8 9 8 3 1 1 2 1 1 1 2 3 5 7 8 9 8 6 8 7 7 11 11 10 11 11 11 11 9 9 10 11 12 12 13 14 14 14 13 11 10 11 11 12 12 12 12 12
18 20 20 20 21 22 21 20 21 21 21 19 18 18 17 15 15 15 14 13 12 11 10 10 10 10 10 10 11 12 12 11 11 11 10 10 9 9 9 8 5 4 3 2 3 2 2 3 2 3 6 7 7 5 3 7 8 8 10 10 10 12 12 11 11 10 9 10 10 11 12 12 12 12 12 12 10 10 10 10 10 10 10 11 12
19 22 21 19 20 22 22 21 19 19 21 21 19 19 19 17 16 15 14 15 15 14 12 11 11 10 11 11 12 13 13 13 12 11 11 10 10 10 10 9 7 7 4 1 2 3 2 3 4 4 6 7 6 4 4 7 9 10 11 10 10 13 13 11 11 10 10 10 10 10 11 11 11 11 11 10 10 9 10 9 9 9 10 11 11
20 22 22 21 20 19 20 20 19 18 19 20 19 20 21 20 17 15 14 14 16 16 14 12 11 11 11 12 13 13 14 14 13 11 11 10 10 9 8 8 8 7 4 3 4 6 7 7 7 6 7 6 4 6 7 6 8 10 11 9 8 11 13 13 12 11 11 10 9 9 10 10 10 10 10 9 9 10 10 11 10 10 10 11 10
23 23 22 22 22 19 19 20 20 20 20 20 19 20 21 22 20 17 15 14 15 15 14 14 14 13 12 13 14 14 15 15 14 12 11 10 10 9 8 7 6 4 3 6 7 7 10 8 5 4 6 7 6 7 8 7 8 9 10 10 8 9 12 13 12 11 11 10 10 9 9 10 10 9 9 9 9 10 11 12 12 11 11 11 11
25 23 21 22 23 22 21 21 20 21 21 21 21 19 20 23 22 19 16 15 15 15 15 16 17 16 14 15 15 14 14 15 15 13 12 10 10 10 9 7 5 3 2 4 6 6 7 7 4 2 3 5 6 8 9 8 8 9 11 12 10 10 12 13 13 12 11 11 13 12 11 10 9 10 9 9 9 9 10 11 13 13 12 13 13
25 23 20 20 22 22 23 22 21 21 21 21 22 20 19 20 20 19 18 16 16 16 18 19 19 18 16 16 15 14 14 15 15 14 12 10 8 8 8 9 7 3 1 1 4 6 6 6 5 4 3 4 5 7 10 10 9 10 11 12 11 11 13 14 14 14 11 11 12 13 13 11 9 10 10 10 10 10 10 10 12 13 13 14 14
21 20 19 20 21 21 22 22 22 22 21 20 20 21 21 19 20 21 20 19 17 17 17 17 18 17 17 17 16 14 14 15 16 15 13 10 8 7 7 7 5 2 1 2 4 7 7 6 5 5 6 6 5 6 8 9 10 10 10 11 11 12 13 15 16 15 14 13 12 12 13 12 10 10 10 11 11 11 11 11 11 12 13 14 14
17 16 17 20 21 20 20 21 22 22 23 21 20 21 21 20 20 20 19 19 18 17 16 14 14 15 18 20 19 17 17 16 16 16 14 10 8 7 7 6 4 2 2 4 5 6 8 7 5 5 6 6 5 7 8 8 10 11 11 11 11 12 13 14 15 15 14 14 13 11 12 12 11 11 11 12 13 13 13 12 12 12 13 14 14
20 18 17 19 22 21 20 20 20 21 22 22 21 21 21 21 20 20 20 20 18 17 16 15 15 16 19 22 21 19 19 17 15 15 14 10 7 7 7 7 7 5 3 4 5 6 7 8 6 5 6 7 7 8 8 7 8 10 10 10 11 13 13 13 14 15 14 13 12 12 12 12 12 12 12 12 13 14 15 14 14 13 13 14 14
22 21 19 20 22 22 21 21 21 21 21 22 22 22 22 22 22 23 23 22 20 18 18 17 16 15 18 20 19 18 18 18 16 15 14 13 11 11 9 7 8 6 4 4 5 5 7 7 7 6 7 8 8 7 7 7 8 9 9 8 9 12 14 15 15 15 14 12 11 12 13 12 12 12 12 11 12 13 14 14 15 15 15 14 14
23 21 21 22 22 21 21 23 23 21 20 22 23 23 22 23 23 23 23 22 21 19 19 18 16 14 15 16 15 17 18 19 19 18 15 15 15 14 10 9 9 8 6 6 6 6 7 7 7 8 8 8 8 8 6 6 7 8 8 8 10 11 13 15 16 16 15 14 13 13 13 13 14 14 14 14 14 14 14 14 15 16 16 15 15
24 23 23 25 24 22 21 22 21 20 21 24 26 26 25 24 24 25 24 22 21 20 20 19 17 16 15 14 13 15 17 16 16 17 16 16 17 16 12 10 11 10 7 7 6 6 6 6 6 7 8 9 9 8 8 9 9 8 8 10 11 11 13 15 15 15 15 15 15 14 13 13 14 15 16 15 14 13 13 13 14 14 15 15 16
23 25 26 27 27 26 24 23 21 20 22 24 26 27 27 26 27 27 26 25 24 23 21 20 19 18 16 15 15 15 15 14 14 15 16 16 19 18 15 12 12 11 9 7 7 6 6 6 6 7 8 9 9 8 9 10 10 9 9 10 10 11 13 13 13 13 13 13 14 15 14 13 14 14 14 13 12 11 11 12 12 12 11 12 13
23 25 26 27 28 27 24 22 21 21 24 24 23 25 26 25 27 28 26 26 26 25 23 22 21 19 15 14 15 16 16 15 15 15 15 16 18 19 16 15 15 13 11 10 9 8 7 7 7 7 7 7 8 8 9 8 8 8 8 9 10 11 12 11 9 9 10 11 13 14 14 13 13 13 13 13 13 13 13 13 12 11 10 9 10
23 24 24 26 25 22 19 18 19 23 28 27 22 22 24 24 26 26 25 25 25 23 23 22 20 16 14 15 16 17 15 13 13 13 13 15 18 17 16 17 16 15 14 13 12 11 10 9 9 8 7 8 9 9 9 8 7 8 8 8 10 11 11 10 10 9 9 9 10 13 14 13 12 12 13 13 14 13 12 13 12 11 10 10 10
23 25 25 26 23 20 18 19 21 24 28 27 24 23 24 25 25 26 25 25 24 23 22 21 18 14 14 15 16 17 15 12 12 12 12 13 15 15 15 15 14 14 14 15 14 14 12 11 11 9 8 8 9 8 7 6 6 6 7 8 9 10 10 11 12 12 11 10 10 12 13 13 12 12 12 12 12 12 10 10 11 11 10 10 11
23 25 25 24 22 21 21 22 23 25 25 24 23 24 24 24 25 25 25 25 24 24 22 20 17 16 16 16 17 17 13 11 12 12 12 13 13 13 13 13 13 13 13 14 14 14 14 14 14 12 9 9 9 7 6 5 5 6 7 8 10 11 11 12 12 12 13 13 12 11 10 12 13 12 11 10 11 12 10 9 10 11 11 11 12
20 21 21 20 20 21 22 21 22 22 20 20 20 20 22 24 25 24 24 23 22 21 20 18 15 16 17 17 17 15 11 10 12 12 12 12 11 11 11 11 12 12 13 13 12 12 13 13 13 12 11 11 8 6 5 5 5 7 7 8 9 10 11 11 10 12 13 14 14 12 9 9 10 12 11 9 8 10 10 10 11 13 13 13 13
14 16 16 16 17 17 17 17 18 18 17 18 20 19 19 23 24 23 23 21 19 16 17 17 15 16 17 17 16 13 11 12 13 12 12 11 9 9 9 10 11 11 11 11 10 11 12 12 11 10 9 7 5 3 3 4 4 5 5 6 8 9 10 9 9 11 12 11 12 13 11 9 8 9 10 10 9 9 10 10 11 12 13 13 14
13 15 15 15 17 18 16 17 18 18 17 18 19 18 19 22 22 22 21 19 17 15 16 17 16 16 16 17 14 12 11 12 12 11 11 11 10 9 9 10 11 11 11 10 9 10 12 11 9 7 6 4 4 4 5 6 7 7 8 8 9 9 9 8 8 9 9 8 10 12 12 10 8 7 10 12 11 9 10 11 10 9 10 11 12
12 13 13 15 17 16 16 17 17 16 16 16 16 17 20 22 20 19 19 17 16 15 15 15 16 16 16 15 12 10 11 12 11 10 10 10 10 9 9 9 10 10 10 10 9 8 9 9 8 7 7 5 6 6 6 7 8 9 12 13 11 9 9 8 7 7 7 8 10 12 12 9 7 7 10 11 9 8 10 11 10 9 10 10 8
11 12 13 15 15 13 13 15 14 11 10 12 13 15 18 20 18 18 16 15 15 15 14 14 14 14 15 14 11 10 10 10 9 8 9 9 9 8 6 6 8 7 5 7 9 7 7 9 9 7 6 5 5 7 8 7 7 8 10 11 10 8 9 9 8 6 5 5 7 11 11 8 7 6 8 8 5 5 9 11 10 9 10 10 6
Wind_Direction
237 239 234 234 240 237 241 247 239 237 215 208 222 211 193 311 309 276 256 275 285 289 292 309 313 302 294 298 288 267 264 256 250 241 235 240 228 220 222 214 210 209 209 210 206 204 204 203 202 201 200 199 202 203 201 200 199 199 200 199 201 201 202 203 204 207 206 207 209 209 212 213 213 217 218 218 220 222 225 230 234 236 241 250 257
249 245 243 239 235 232 238 238 229 221 210 208 202 199 209 311 308 256 235 294 287 282 290 306 317 303 285 291 283 259 263 263 253 243 231 231 224 215 225 224 215 210 209 210 207 204 205 205 204 202 201 202 203 203 202 204 203 202 201 201 203 204 206 208 207 210 210 209 211 213 216 217 219 222 223 224 226 230 233 235 237 239 242 249 254
245 237 249 249 236 236 239 232 223 209 213 214 189 198 192 179 307 308 289 286 265 274 288 283 288 293 285 289 284 262 262 270 247 232 222 216 209 213 232 230 220 216 209 206 206 205 206 206 205 203 203 204 203 203 203 206 207 205 202 203 206 206 209 211 211 212 214 213 214 215 217 219 222 225 226 227 229 233 238 241 242 242 243 247 251
244 245 251 248 234 233 230 227 226 203 209 218 189 162 164 172 221 265 238 243 245 253 274 278 266 263 307 301 284 271 273 285 249 245 240 219 208 212 228 231 217 214 211 206 205 206 208 206 205 204 204 206 206 205 206 208 209 208 205 204 207 209 210 213 215 214 215 216 216 217 219 221 225 228 230 231 232 234 237 242 246 248 249 249 253
242 249 248 241 229 231 225 213 215 208 211 223 207 176 179 188 208 220 212 221 235 220 226 303 288 274 347 310 274 268 257 262 239 257 273 258 263 240 229 226 214 212 213 209 207 208 209 207 206 206 206 207 208 208 209 211 211 210 209 207 207 209 212 215 218 219 218 218 217 218 220 223 227 230 234 236 237 238 238 241 244 249 252 254 257
231 240 240 239 232 230 228 210 205 213 218 225 241 243 234 239 231 225 212 214 230 211 192 261 254 236 359 292 289 289 219 203 253 262 280 274 274 258 233 215 209 218 220 214 210 209 209 208 207 208 208 208 210 211 212 213 213 213 213 211 210 211 214 216 219 221 223 223 220 220 223 226 230 233 236 240 241 241 241 243 244 246 250 254 258
225 233 232 233 232 221 223 219 205 213 222 222 237 245 252 258 250 263 250 226 241 233 211 212 194 180 154 175 217 289 235 268 285 271 278 285 289 256 232 215 211 218 220 218 215 210 208 208 209 210 210 210 210 212 213 214 215 216 217 216 213 214 215 217 219 223 226 228 225 224 226 229 233 236 238 241 243 244 245 247 248 249 251 254 256
219 226 223 224 230 218 212 216 209 209 217 223 234 241 259 265 252 285 301 292 289 251 236 334 187 157 132 144 164 188 225 187 211 256 265 272 294 259 223 212 212 212 215 216 217 215 212 211 211 210 211 212 212 213 214 215 216 217 218 219 218 217 218 218 220 223 226 230 231 231 232 234 235 238 240 241 243 245 248 250 251 253 254 256 257
213 216 215 217 229 224 209 205 208 214 218 230 239 241 262 285 280 280 298 316 329 314 324 2 157 144 124 121 151 168 180 162 173 238 294 280 215 202 128 207 211 209 214 217 218 219 218 214 213 212 211 213 214 214 215 216 218 218 219 221 222 221 220 220 221 224 227 231 234 236 239 240 240 242 243 244 246 248 250 252 255 256 257 259 260
210 210 210 212 225 226 214 202 205 217 223 233 241 245 259 290 300 290 308 315 324 329 337 352 12 121 123 121 132 146 144 148 162 167 299 306 175 167 86 251 224 214 216 216 217 219 221 218 214 214 215 215 216 217 217 217 218 219 220 221 223 223 223 223 224 226 229 232 235 237 239 242 243 246 246 246 247 249 251 253 255 257 258 260 260
205 206 207 210 223 225 217 207 204 213 220 229 237 249 253 263 288 295 323 322 310 316 327 334 355 82 102 106 104 109 123 140 176 256 291 313 360 318 295 282 249 232 229 225 222 216 216 219 215 213 216 217 217 218 218 218 218 219 221 222 223 224 225 226 227 229 231 234 236 238 239 241 244 248 248 248 249 250 252 254 256 258 259 259 260
202 204 203 204 218 222 214 210 208 213 218 229 236 247 250 253 279 291 311 313 307 313 328 325 342 68 73 87 97 104 126 140 171 296 314 320 324 294 282 287 261 235 236 231 230 223 215 217 216 214 216 219 219 220 220 220 220 220 220 222 223 224 225 227 228 230 232 234 236 238 240 243 246 249 250 250 252 253 253 255 257 258 259 259 260
198 200 202 200 208 218 217 213 212 217 222 230 238 241 251 270 280 281 284 289 299 313 329 329 353 49 47 67 70 53 139 128 157 235 324 324 278 258 263 269 255 238 238 229 231 238 229 218 216 216 217 221 222 223 223 223 223 222 222 222 223 224 225 227 228 230 231 233 236 239 241 245 247 249 250 252 253 254 254 255 256 257 258 259 261
196 198 201 200 204 214 218 212 212 222 226 229 240 245 248 263 271 275 282 287 300 310 332 344 38 69 58 60 36 18 159 48 359 332 323 330 285 252 254 250 240 237 236 231 234 243 240 226 220 218 217 221 226 226 226 226 226 227 226 225 225 226 226 228 229 231 232 234 237 240 243 247 248 249 251 253 254 256 256 256 256 256 258 259 261
195 197 199 201 203 209 215 212 213 222 228 231 239 245 246 253 258 261 269 283 296 298 331 336 97 112 99 101 34 33 151 42 2 345 314 303 295 271 260 249 243 236 231 236 237 237 239 233 226 222 220 220 224 229 228 227 229 230 230 229 229 229 229 230 232 233 234 236 238 241 245 248 249 250 251 253 254 256 256 257 257 258 259 261 262
197 198 199 202 203 207 212 214 214 215 223 229 233 240 240 241 243 250 266 289 299 301 324 323 302 125 114 132 125 167 153 57 344 328 313 295 281 282 284 254 245 239 229 243 244 235 235 232 229 228 226 221 221 228 230 229 231 232 233 232 231 231 230 231 233 234 235 237 239 240 244 247 249 250 251 252 254 255 256 257 259 259 260 262 263
199 200 202 203 204 208 212 217 218 213 219 227 228 232 235 241 245 249 263 259 275 302 313 308 321 97 130 157 152 171 151 112 322 299 309 306 273 286 309 243 235 251 239 245 245 232 232 231 227 226 225 222 221 226 230 230 231 233 235 234 233 233 233 233 232 233 235 236 238 240 242 245 247 250 251 253 255 256 258 259 260 260 261 263 264
203 203 204 206 206 208 211 216 221 217 220 226 228 232 233 240 244 242 249 240 235 287 305 295 310 38 131 184 206 191 168 154 164 222 305 317 255 262 297 239 227 250 238 243 244 233 235 233 225 223 223 223 225 227 229 232 230 230 235 236 234 234 234 235 234 234 235 236 238 240 243 246 248 251 252 255 257 258 260 261 261 261 262 263 263
206 208 207 209 209 210 211 214 221 222 222 226 230 235 233 236 245 244 256 259 194 236 273 279 289 287 184 175 194 201 191 170 167 193 313 339 212 249 289 281 256 255 238 243 247 239 237 232 225 223 221 221 223 225 226 231 232 231 234 237 237 234 233 235 235 234 235 236 238 240 243 247 250 252 254 256 258 259 261 262 262 262 263 264 264
208 211 210 211 211 211 214 215 220 224 226 228 230 233 235 240 248 247 257 275 248 240 256 266 281 278 224 165 157 182 224 225 201 175 130 307 284 256 271 263 256 264 256 243 240 234 230 230 225 221 221 220 218 220 222 226 229 232 235 237 237 233 230 232 233 233 234 235 238 240 243 247 250 252 254 256 258 260 262 262 261 262 263 264 264
209 213 212 212 213 213 215 217 220 225 228 232 233 232 236 240 243 241 246 253 244 238 243 246 257 265 253 231 195 180 205 216 194 177 156 209 272 276 242 229 240 256 251 238 234 231 226 228 227 220 223 226 221 219 221 220 220 226 231 235 236 235 234 234 232 232 233 235 238 240 243 246 249 252 255 257 259 261 264 263 263 263 264 265 265
207 215 215 214 215 215 216 219 220 224 228 231 235 238 240 239 239 239 235 236 236 234 235 237 245 253 253 239 220 199 212 200 185 190 181 185 228 259 257 244 251 257 249 237 234 235 231 231 230 221 222 230 227 222 222 221 219 222 227 234 238 241 241 240 239 238 236 237 238 240 243 245 248 252 255 258 260 263 264 263 263 262 261 262 263
206 214 216 215 217 217 217 221 222 225 229 233 237 241 243 239 234 234 231 230 232 232 233 237 239 244 249 239 234 230 214 199 217 223 209 200 224 254 255 249 259 266 265 248 234 235 237 235 231 223 226 234 229 220 221 224 223 224 230 237 241 243 244 244 245 244 242 240 241 241 243 244 248 252 256 259 261 263 264 265 265 263 261 259 260
214 216 217 216 217 218 219 222 224 227 230 233 236 240 244 241 232 232 231 226 224 225 229 234 239 244 249 246 247 244 223 221 242 231 224 233 235 259 270 258 256 270 277 266 243 234 237 237 232 227 231 235 227 218 219 223 225 229 234 241 243 240 241 244 247 247 243 241 241 242 244 246 249 253 257 261 264 266 269 271 271 268 263 259 259
226 221 219 219 218 218 220 223 225 229 231 233 235 237 243 248 244 238 232 220 214 218 223 231 242 249 249 247 249 248 241 243 242 234 241 236 218 233 267 262 251 271 279 267 243 234 242 241 234 232 231 229 225 221 220 222 224 229 233 238 242 239 240 246 250 249 244 241 242 244 247 250 253 256 260 265 268 269 271 271 271 271 266 261 261
228 226 222 222 222 220 220 223 227 231 233 234 235 235 240 248 249 245 242 229 213 212 220 233 247 250 250 253 254 254 252 248 243 241 242 231 220 230 252 259 264 279 281 259 241 235 238 235 230 233 233 227 225 222 219 220 222 225 226 234 241 240 241 248 251 250 246 244 245 246 249 253 253 256 260 264 264 264 265 264 264 266 266 262 260
226 230 227 221 223 226 223 224 227 230 232 234 232 232 235 239 240 242 246 244 227 220 226 240 252 254 253 257 260 264 265 262 256 249 245 244 250 255 253 248 271 283 272 248 242 233 224 232 232 229 227 225 225 223 220 221 223 220 217 227 239 238 240 245 249 249 245 243 245 246 250 254 254 256 263 266 265 263 261 257 256 258 262 263 260
231 229 229 223 222 226 225 222 222 225 230 233 230 228 231 233 234 238 241 240 236 234 237 245 253 259 260 262 264 265 266 268 267 264 260 259 263 265 259 245 233 282 293 266 246 215 216 243 240 230 227 224 223 222 221 227 232 222 211 217 232 237 239 241 243 247 245 242 244 246 251 256 259 264 270 271 268 262 256 249 248 251 257 261 258
244 235 230 227 222 222 224 223 223 226 228 231 230 227 228 229 229 232 234 234 235 237 241 246 251 257 259 259 261 264 267 267 266 266 264 261 258 255 255 250 224 157 282 296 290 153 201 246 238 239 245 232 218 216 223 232 231 214 209 213 226 238 239 235 236 242 242 241 242 245 250 256 263 268 271 269 260 254 251 246 244 247 254 258 255
242 244 233 228 224 221 223 225 227 224 221 225 227 224 225 227 229 231 230 230 232 233 237 244 250 256 259 259 260 264 266 266 265 263 259 256 253 251 251 253 239 203 201 270 285 259 239 243 229 229 244 234 213 207 232 231 217 201 207 214 221 234 241 237 234 235 237 239 241 243 247 253 260 265 266 264 254 246 243 237 235 240 248 253 251
231 246 237 231 228 220 220 225 227 222 220 224 225 221 222 224 227 229 230 230 231 232 233 240 249 255 257 258 261 264 267 267 267 267 265 260 254 249 245 241 235 225 214 235 289 292 304 261 236 220 228 227 214 216 228 229 226 219 218 220 219 229 240 242 238 240 243 245 243 242 244 248 255 258 259 260 253 240 229 223 228 238 247 251 249
221 239 237 231 229 221 216 222 227 227 225 224 222 221 222 222 223 227 229 229 233 235 234 236 245 253 255 256 257 260 263 265 265 267 267 263 260 259 255 244 234 229 217 181 210 266 280 258 236 223 219 213 217 235 234 236 245 232 223 227 225 225 233 237 240 246 250 250 247 244 244 246 249 253 253 254 252 241 228 223 229 237 244 249 250
218 231 236 231 230 225 217 218 224 227 228 225 221 220 221 221 221 225 228 228 230 231 231 236 243 248 251 253 256 259 260 261 262 264 265 267 271 275 274 265 241 208 200 197 201 244 265 257 237 224 221 211 211 231 236 244 252 233 222 232 227 212 221 233 241 248 251 252 251 246 245 246 247 250 250 251 250 246 238 233 233 236 241 246 248
222 229 235 232 229 229 225 222 223 225 228 228 225 223 222 220 219 220 223 225 229 230 232 241 248 250 250 249 251 255 258 261 261 261 264 268 275 275 275 275 252 188 170 211 206 228 255 256 249 240 239 230 225 234 240 249 254 236 227 235 231 214 220 232 243 250 253 251 247 243 243 244 247 249 251 251 252 251 248 243 238 237 240 244 246
229 230 235 234 231 229 226 225 228 229 228 226 225 226 226 219 211 213 218 221 228 232 236 246 252 250 248 246 250 252 253 257 260 262 263 263 270 276 272 270 258 225 122 223 231 244 254 255 240 217 239 263 253 247 246 249 251 240 230 230 229 228 233 239 243 247 249 245 241 241 241 241 244 249 251 254 255 254 253 251 246 243 244 246 249
234 232 234 235 236 235 227 222 227 232 232 227 221 223 226 221 212 214 218 220 223 226 232 245 252 251 248 245 247 249 250 256 259 260 262 258 258 268 266 260 258 265 278 239 239 245 240 241 241 236 250 265 264 256 252 246 243 240 236 231 231 238 243 244 245 248 252 251 247 245 242 240 246 252 257 260 260 260 258 257 254 251 250 251 252
235 236 239 237 241 243 233 225 226 230 231 229 223 220 222 219 214 215 218 218 218 219 222 230 237 247 254 253 251 250 249 255 260 259 261 257 246 249 256 255 248 247 243 221 220 226 227 234 247 252 255 254 250 252 253 248 239 237 239 238 240 246 248 248 249 252 257 255 250 242 234 236 247 257 264 266 264 263 262 261 260 257 255 255 254
239 240 242 242 243 243 235 229 230 231 230 229 227 225 222 218 214 216 220 222 222 223 226 228 229 237 244 248 254 255 250 250 254 258 265 264 249 244 252 258 255 243 213 209 221 224 230 240 240 232 233 234 240 251 258 260 249 241 242 244 246 249 252 255 254 252 254 254 251 244 236 239 250 258 263 266 265 263 262 261 261 261 260 258 256
239 238 238 237 238 240 236 231 231 234 235 233 229 226 224 223 222 220 222 227 230 232 234 236 238 239 237 235 240 246 247 248 252 261 266 261 256 258 255 247 247 242 209 201 218 221 227 238 243 240 235 233 237 248 259 261 250 244 247 253 256 256 255 256 254 254 258 259 255 250 244 246 252 254 258 263 265 264 263 262 261 260 260 259 258
237 237 239 237 235 238 239 235 233 236 239 235 228 223 223 225 227 227 228 232 235 237 236 236 236 239 242 241 238 241 247 252 257 261 261 257 258 258 247 231 233 236 220 202 204 211 220 233 244 246 240 231 229 235 242 237 229 233 236 242 253 261 262 260 257 255 257 258 257 253 248 249 252 253 255 260 264 265 264 263 263 261 259 258 257
240 237 238 238 234 233 236 236 236 238 240 235 228 225 225 226 229 233 234 235 236 238 239 237 234 232 239 247 246 244 248 254 258 260 258 258 255 247 235 229 232 235 230 219 215 220 227 234 242 243 237 230 225 223 225 221 215 218 227 233 242 253 263 267 264 258 252 250 253 252 249 250 252 253 256 260 263 264 262 260 262 263 262 258 257
245 241 239 238 235 233 232 232 233 237 240 238 234 230 229 230 233 235 236 235 234 236 238 238 237 237 240 246 248 248 249 250 253 255 255 254 253 249 246 241 238 237 235 231 229 231 235 239 243 245 239 235 229 220 223 230 230 228 229 232 238 246 254 261 268 268 258 248 246 248 248 251 253 252 254 258 260 260 258 255 258 263 264 259 255
243 245 242 239 237 236 233 230 230 232 233 233 235 235 232 231 234 236 236 234 233 235 236 236 240 243 243 245 250 253 252 247 245 245 243 244 249 251 248 242 240 243 241 236 233 232 234 234 237 241 238 240 244 232 224 231 240 240 234 230 237 242 241 244 259 272 267 255 249 249 250 251 250 245 244 248 250 251 251 252 253 257 258 256 252
246 248 244 238 237 237 235 234 235 237 236 231 229 234 233 232 234 234 234 233 231 231 232 234 240 243 237 238 248 255 251 244 241 239 236 241 247 248 244 242 242 244 245 244 242 239 235 230 232 238 239 245 255 246 229 220 226 237 235 226 231 237 235 238 249 256 261 256 246 246 251 252 247 241 240 242 243 244 248 249 248 247 248 249 251
252 246 242 238 236 234 235 235 234 238 240 234 229 231 233 231 231 229 230 231 229 227 228 231 233 229 224 232 243 248 243 231 226 228 229 236 244 243 242 242 244 246 247 247 246 244 240 237 240 243 241 246 252 246 233 219 212 231 244 239 240 240 237 243 248 248 253 254 243 243 251 253 249 242 237 239 241 243 247 246 242 242 244 246 249
249 244 239 236 234 233 233 232 229 232 236 233 231 233 233 231 230 227 227 229 229 228 228 230 228 222 224 234 240 238 232 221 217 219 223 229 237 239 238 241 246 248 247 245 245 243 240 241 246 246 244 251 252 244 241 232 219 229 238 243 248 245 242 249 253 251 251 247 239 239 250 256 251 238 227 231 239 242 244 243 243 244 245 246 248
246 250 248 243 240 238 234 232 230 231 232 230 232 236 231 228 228 225 224 226 227 227 226 222 224 227 230 234 233 225 217 220 222 218 215 220 229 233 234 240 246 248 250 249 245 243 241 241 244 246 250 256 255 247 243 238 234 234 231 235 246 251 253 258 261 261 259 250 234 227 240 259 247 227 219 221 227 232 236 240 244 244 243 245 250
248 258 260 256 256 252 245 241 238 237 238 237 238 235 228 227 227 224 223 223 219 220 222 218 222 231 231 228 225 216 211 218 219 210 205 208 216 226 235 242 244 249 257 256 251 251 250 246 243 243 241 240 239 243 252 252 250 244 236 241 251 254 255 258 262 265 266 262 243 228 233 252 242 217 209 204 202 219 240 253 257 252 248 249 252
256 258 255 254 259 258 254 252 247 242 242 245 246 240 230 227 225 219 218 217 212 217 224 221 220 226 227 223 218 214 211 211 209 206 209 212 213 220 233 239 243 252 260 260 261 257 246 239 238 232 218 216 243 271 281 275 264 251 241 241 248 252 247 244 258 264 261 261 249 229 226 243 247 216 193 192 200 219 243 259 267 267 269 269 262
257 258 254 254 258 257 254 255 251 244 241 244 250 245 233 227 219 210 209 209 210 215 216 212 215 221 222 218 214 213 210 208 208 208 210 213 214 219 230 239 248 261 262 253 247 239 224 219 217 215 220 241 265 280 290 285 266 250 242 239 245 259 259 249 256 266 267 266 251 228 219 229 237 207 178 183 207 226 233 243 251 264 284 291 275
261 263 255 251 253 252 255 258 257 251 244 246 251 246 234 226 211 199 199 200 202 208 210 212 218 220 216 214 213 211 207 205 205 200 195 196 203 212 229 250 263 273 263 228 220 210 200 204 207 214 227 249 271 279 288 290 271 254 251 247 247 264 275 272 269 272 277 268 226 212 213 215 216 206 183 184 207 215 213 224 236 252 276 291 286
Height
828 828 828 828 828 827 827 827 826 826 826 827 826 827 827 826 827 827 827 827 827 827 827 827 827 827 829 829 830 830 830 831 832 833 833 834 835 835 835 835 836 837 839 840 841 842 843 844 845 846 847 848 849 850 851 852 853 854 855 856 857 858 860 861 862 863 864 865 866 867 868 869 870 870 871 871 872 872 873 873 874 874 875 875 876
828 828 828 828 827 827 827 827 826 826 826 827 827 827 827 827 827 827 826 826 827 827 827 827 826 826 828 829 829 829 830 830 831 832 832 833 834 834 835 835 835 836 837 838 840 841 842 843 844 845 846 847 848 849 851 851 852 853 854 855 856 857 859 860 861 862 863 864 865 866 867 868 869 870 870 870 871 871 872 872 873 873 874 874 875
827 828 828 827 827 826 826 826 826 826 826 827 827 828 827 827 827 826 826 826 827 827 827 828 828 827 827 829 829 829 829 830 830 830 831 831 832 833 833 834 834 835 836 837 838 839 841 842 843 844 845 846 847 848 849 850 851 852 853 854 855 856 857 858 859 861 862 863 864 865 866 867 868 869 869 869 870 870 871 871 872 872 872 873 873
826 827 827 827 826 826 825 826 825 826 826 826 827 828 828 827 827 826 826 827 827 827 827 827 828 830 830 831 831 829 829 829 829 829 830 830 830 832 832 833 834 834 835 836 837 838 839 840 841 842 844 845 846 847 848 849 850 851 851 852 854 855 856 857 858 859 860 861 862 864 865 866 867 867 868 868 869 869 870 870 870 871 871 872 872
826 826 826 826 826 825 825 825 825 825 826 826 826 828 828 828 827 826 826 827 827 827 828 827 828 830 833 834 831 830 829 828 829 829 829 830 830 830 832 832 833 834 834 835 836 836 837 839 840 841 842 843 844 846 847 848 849 850 850 851 852 853 855 856 857 858 859 860 861 862 863 864 865 866 867 867 868 868 868 869 869 870 870 871 871
824 825 825 825 825 825 824 824 825 824 824 825 826 826 827 827 827 827 827 826 826 826 827 829 830 833 837 836 832 829 829 829 829 829 829 829 829 829 831 832 832 833 833 834 834 835 836 837 838 839 840 841 842 844 845 846 848 848 849 850 851 852 853 854 855 856 857 858 860 861 862 863 864 865 865 866 866 867 867 868 868 869 869 870 870
823 824 824 825 824 824 824 824 824 824 824 824 825 825 825 826 826 826 826 825 826 825 826 828 832 837 840 838 834 830 828 828 828 828 829 828 828 828 829 830 831 832 832 833 833 833 834 835 837 838 839 840 841 842 843 845 846 847 847 848 849 851 852 853 854 855 856 857 858 859 860 861 862 863 864 865 865 865 866 866 867 867 868 868 869
822 823 823 824 823 823 823 823 823 823 823 823 824 824 824 824 824 825 825 825 825 824 826 827 830 837 839 836 835 832 829 829 828 827 828 828 828 827 828 829 830 831 832 832 832 832 833 834 835 836 837 838 839 841 842 843 844 845 846 847 848 849 850 852 853 854 855 856 857 858 859 860 861 861 862 863 863 864 864 865 865 866 866 867 867
820 821 822 823 822 822 822 822 822 822 823 823 823 823 823 823 823 824 824 824 824 824 824 826 829 834 835 833 833 832 830 829 828 827 827 827 828 827 827 828 829 831 831 832 832 832 832 833 834 835 836 837 838 839 840 841 842 843 844 845 846 847 849 850 851 852 853 854 855 856 857 858 859 860 860 861 862 862 863 863 864 864 865 865 865
819 820 820 821 821 821 821 821 821 822 822 822 822 822 822 823 823 823 823 823 823 823 823 825 828 829 830 830 830 830 829 828 828 827 827 827 827 827 827 828 829 830 831 831 832 832 832 832 832 833 834 835 836 837 838 839 840 841 842 843 844 845 847 848 849 851 852 853 854 855 856 856 857 858 859 859 860 861 861 862 862 862 863 863 864
816 818 819 820 820 820 820 820 820 821 821 821 821 821 821 822 822 822 823 823 822 822 823 824 825 826 827 828 828 829 828 827 826 826 826 826 826 826 826 827 828 829 831 831 831 831 831 831 831 832 833 834 835 836 837 837 838 839 840 841 842 844 845 846 847 849 850 851 852 853 854 854 855 856 857 857 858 859 859 860 860 861 861 861 862
814 816 817 818 818 818 819 819 819 820 820 820 820 820 820 821 821 822 822 822 822 822 822 823 823 823 825 827 827 828 827 826 825 824 824 824 825 825 826 827 828 829 830 831 831 831 831 831 830 831 832 832 833 834 835 836 836 837 838 839 840 841 843 844 845 846 848 848 849 850 851 852 853 854 855 855 856 857 857 858 859 859 859 860 860
813 814 815 816 817 817 817 818 818 818 819 819 819 819 819 820 820 821 821 821 821 821 821 821 821 822 824 825 826 826 827 826 826 825 824 824 825 826 827 827 828 829 830 831 831 831 830 830 830 830 831 831 832 832 833 834 835 836 837 838 839 840 841 842 843 844 846 847 847 849 849 851 851 852 853 854 855 855 856 856 857 857 857 857 858
811 812 813 814 815 815 816 816 817 817 817 817 818 818 818 819 820 820 820 820 820 820 820 819 820 821 823 824 825 825 826 826 826 826 825 825 826 827 828 829 828 829 830 830 830 830 830 829 829 829 829 830 831 831 832 833 834 835 835 837 837 839 840 841 842 843 844 845 846 847 848 849 850 851 852 852 853 853 854 854 855 855 855 855 855
810 810 811 812 813 814 814 815 815 815 816 816 816 817 817 818 818 819 819 819 819 819 819 818 819 820 822 825 827 827 828 827 826 825 825 825 826 827 828 829 829 828 829 830 830 829 829 828 828 829 829 829 830 830 831 831 832 833 834 835 836 837 838 840 841 842 843 844 845 846 847 848 848 849 850 850 851 851 852 852 852 853 853 853 853
808 808 809 810 811 812 812 813 813 814 814 815 815 816 816 816 817 817 817 818 819 818 818 818 818 819 821 825 827 829 832 829 826 825 825 826 826 826 826 827 828 827 828 829 829 829 828 827 827 828 828 829 829 829 830 830 831 832 832 833 834 835 837 838 839 840 841 842 843 844 845 846 846 847 848 848 849 849 850 850 850 850 850 851 851
806 807 808 808 809 810 811 811 812 812 813 813 814 814 815 815 815 816 817 817 818 818 818 817 817 817 819 822 826 830 832 828 827 827 825 825 826 825 824 825 825 824 826 827 828 828 827 827 827 827 828 828 828 829 829 829 830 830 831 831 832 833 834 836 837 838 839 840 841 842 843 844 844 845 845 846 846 847 847 847 848 848 848 848 848
804 805 806 807 808 808 809 810 810 811 811 812 812 813 813 814 814 815 815 815 816 817 817 817 817 816 817 818 821 824 825 825 827 828 825 825 825 824 823 822 823 822 823 826 827 827 827 826 826 826 827 827 827 828 828 829 829 829 829 830 831 832 833 834 835 836 838 838 839 840 841 842 842 843 844 844 844 845 845 845 845 845 845 845 846
803 804 804 805 806 807 807 808 809 809 810 811 811 812 812 812 813 813 814 814 814 816 817 817 816 816 816 816 817 818 819 821 824 826 827 826 824 822 820 819 820 821 822 824 826 826 825 825 826 826 826 826 827 827 827 828 828 828 828 829 830 831 831 832 834 835 836 837 838 839 839 840 840 841 842 842 842 842 843 843 842 843 843 843 843
801 802 803 804 804 805 806 806 807 808 809 809 810 811 811 811 812 812 812 813 814 815 816 816 816 815 815 816 817 817 818 819 820 822 826 827 824 821 820 820 821 821 821 822 824 825 824 825 825 825 825 825 825 826 826 827 827 827 827 828 829 829 830 831 832 833 834 835 836 837 837 838 839 839 840 840 840 840 840 840 840 840 840 841 841
799 800 801 802 803 804 804 805 806 806 807 808 808 809 810 810 810 811 812 812 813 814 814 815 815 815 815 815 816 817 817 818 818 819 821 825 826 822 821 822 822 822 821 822 823 823 823 824 824 824 824 824 824 824 825 825 826 826 827 827 827 828 829 830 831 831 832 833 834 835 836 837 837 838 838 838 838 838 838 838 838 838 838 839 839
797 799 799 800 801 802 803 804 805 805 806 806 807 808 808 809 809 810 811 812 812 813 813 814 814 814 814 814 815 816 817 817 818 819 819 822 824 822 821 821 821 821 820 821 821 822 822 822 822 823 823 822 823 823 824 824 825 826 826 826 827 828 828 829 830 831 831 832 833 834 834 835 836 836 836 836 836 836 836 836 836 836 836 836 837
795 796 797 798 799 800 801 802 803 804 805 805 806 806 806 807 807 808 809 810 811 811 812 812 813 813 814 814 814 815 815 816 817 818 818 820 822 821 819 820 820 819 819 819 819 820 820 820 820 821 821 821 821 822 823 823 824 825 825 825 826 827 828 828 829 830 831 831 832 832 833 833 834 834 834 834 834 834 834 834 834 834 834 834 835
793 794 795 796 797 798 800 801 801 802 803 804 804 805 805 805 806 806 807 808 809 810 811 811 812 812 813 813 813 813 813 814 815 816 817 818 819 819 818 818 818 817 817 818 817 818 818 819 819 819 820 820 821 821 822 823 823 824 824 824 825 826 826 827 828 828 829 829 830 830 831 831 832 832 832 832 832 832 832 832 832 832 832 832 833
791 792 793 794 795 796 798 799 800 800 801 802 803 803 804 804 804 805 806 806 808 809 809 810 811 811 812 812 812 812 812 813 814 814 815 815 816 816 816 816 817 816 816 816 816 816 816 817 818 818 818 819 820 820 821 822 822 823 823 823 824 824 825 826 826 826 827 827 828 828 828 829 829 830 830 830 830 829 829 829 829 829 829 830 830
790 791 792 793 794 794 796 796 798 799 799 800 801 802 802 803 804 804 805 805 806 808 808 809 810 811 811 811 811 811 811 812 812 813 813 813 814 814 814 814 815 814 814 815 814 814 814 815 816 816 817 818 818 819 820 820 821 821 821 822 822 823 823 823 824 824 824 825 825 826 826 826 827 827 828 828 827 827 827 827 827 827 827 828 828
788 789 790 791 792 793 794 795 796 797 798 798 799 800 801 802 803 803 804 805 805 807 808 808 809 809 810 810 810 810 811 811 811 811 811 811 811 812 812 814 815 814 813 813 813 812 813 813 814 815 815 816 817 818 819 819 819 820 820 820 820 820 821 821 821 822 822 822 823 823 824 824 824 825 825 825 824 824 824 824 825 825 825 826 826
785 787 788 789 790 791 792 793 793 795 796 797 797 799 800 801 802 802 803 804 805 806 807 807 808 809 809 809 810 810 810 810 809 809 809 810 810 810 811 812 815 817 815 814 812 811 812 812 813 815 815 815 816 816 817 818 818 819 818 818 818 818 818 819 819 819 820 820 821 821 822 822 822 822 822 822 822 821 822 822 822 823 823 824 824
782 784 786 787 788 789 790 791 791 792 794 795 796 797 799 800 800 801 802 803 804 805 806 807 807 808 808 808 809 808 808 808 808 808 808 808 808 809 809 809 811 815 818 818 814 811 811 812 812 814 815 814 815 815 816 816 816 816 817 817 817 816 816 817 817 817 818 818 819 819 819 820 820 820 820 819 819 819 820 820 820 821 822 822 823
778 782 784 784 785 786 787 789 790 790 792 793 795 796 797 798 799 800 801 802 803 803 804 805 806 807 807 807 807 807 807 807 807 807 807 807 807 807 808 808 809 811 814 817 816 811 811 811 811 812 814 814 814 814 815 814 813 814 815 815 815 815 815 815 815 815 815 816 816 817 817 818 818 818 818 817 817 817 818 818 819 820 820 821 821
773 778 781 782 783 784 785 787 788 789 790 792 793 794 795 797 798 798 799 800 801 802 803 804 805 805 805 806 806 806 806 806 806 806 805 805 806 806 806 807 808 809 811 814 817 814 812 812 811 810 811 812 813 814 814 814 813 813 813 813 813 814 814 814 814 814 814 814 814 815 816 816 816 816 816 816 815 816 816 817 818 818 819 820 820
770 775 779 780 781 782 783 785 787 788 789 790 791 792 793 795 796 797 798 798 799 800 801 803 803 804 803 804 804 804 805 805 805 804 804 804 804 804 805 806 806 808 809 811 814 813 813 813 811 809 809 810 812 812 812 812 812 812 812 812 812 812 813 813 813 813 813 813 813 813 814 814 815 815 814 814 814 814 815 815 816 817 817 818 818
770 773 776 778 779 781 782 783 785 786 787 788 789 790 791 792 794 795 796 797 797 798 800 801 801 802 802 802 802 802 803 803 803 803 803 803 803 803 804 805 805 806 806 807 809 808 809 810 810 808 808 808 809 809 810 810 810 810 810 810 810 810 810 810 811 811 811 812 812 812 812 812 813 813 813 813 813 813 813 814 815 815 816 816 817
770 772 774 776 777 778 779 781 782 784 785 786 787 788 788 789 791 793 794 795 796 796 797 798 799 800 800 800 800 801 802 802 802 802 801 801 802 802 803 805 806 805 804 805 806 806 806 807 808 808 807 807 808 808 808 808 808 808 809 809 810 810 809 809 810 810 810 810 809 809 810 810 811 811 811 811 811 811 812 812 813 813 814 814 815
769 771 772 774 775 776 777 778 780 781 782 783 784 786 786 787 787 789 790 792 793 794 794 795 796 798 799 799 799 800 800 800 800 800 800 800 801 801 802 804 805 804 803 803 804 805 805 806 807 807 806 807 807 806 806 806 806 807 807 808 808 808 808 808 809 809 809 808 808 808 808 809 809 809 810 810 810 810 810 811 811 812 812 813 813
769 770 771 772 774 775 776 777 778 779 780 781 782 783 784 784 784 785 786 787 789 790 791 792 794 796 797 798 798 799 799 799 799 799 799 799 799 799 801 803 803 802 801 801 801 803 804 805 805 805 805 806 806 805 805 804 804 805 805 806 806 806 806 807 807 807 807 807 807 807 808 808 808 808 808 808 808 809 809 809 810 810 811 811 812
769 770 770 771 773 774 775 775 777 777 778 779 779 780 781 782 782 783 784 785 786 787 788 789 790 793 796 798 798 798 798 798 798 798 797 797 797 798 799 800 800 800 800 799 800 801 801 802 803 804 804 805 805 804 804 803 803 803 803 804 804 804 804 805 805 805 805 806 806 806 806 807 807 807 807 807 807 807 808 808 808 809 809 810 810
768 769 769 770 772 773 774 774 775 776 777 778 778 779 779 780 781 782 783 784 785 786 787 786 785 786 791 795 797 797 797 796 796 796 796 796 796 797 798 799 799 799 798 798 799 799 799 800 801 803 803 803 803 803 803 802 802 802 803 803 803 803 804 804 804 804 803 804 804 804 804 804 805 805 805 805 805 805 806 806 807 807 807 808 808
767 767 767 768 770 772 772 772 773 775 776 777 777 777 777 778 778 779 780 781 782 783 784 784 784 785 788 790 792 794 796 796 796 795 795 795 795 795 796 797 798 798 797 797 797 798 798 798 799 801 802 801 801 801 802 802 802 802 802 803 803 803 803 803 803 802 802 802 802 802 802 802 802 802 802 803 803 803 804 804 804 805 805 806 806
764 765 766 767 768 769 770 770 771 773 775 776 775 774 774 775 776 777 778 779 780 781 781 782 783 785 787 788 788 790 792 794 795 795 794 794 794 794 794 795 796 797 796 795 796 796 797 797 798 799 800 799 799 800 800 800 800 800 801 802 802 802 802 802 801 800 800 800 800 800 800 800 800 800 800 800 801 801 802 802 802 803 803 803 804
761 762 763 764 765 766 767 769 771 773 774 773 772 772 772 773 774 774 775 777 778 779 780 780 781 782 784 787 787 788 789 791 792 792 793 793 793 792 792 793 795 795 793 793 793 794 795 796 796 796 796 797 797 798 799 798 798 798 799 799 799 799 800 799 799 798 798 798 798 798 798 798 798 798 798 798 798 799 800 800 800 800 801 801 802
761 761 762 762 762 763 765 767 770 772 772 772 770 769 769 770 770 771 772 774 775 777 777 778 779 780 781 783 784 785 786 787 787 788 790 792 792 791 791 791 792 792 791 791 791 792 793 794 794 794 794 795 796 796 796 796 796 795 796 796 796 797 798 798 797 796 796 796 796 796 796 797 796 796 796 796 797 798 798 798 798 799 799 799 800
760 760 761 761 761 762 764 766 768 770 771 770 768 766 766 766 767 768 769 770 772 773 775 775 775 776 778 779 779 780 782 783 784 785 786 790 791 790 789 789 789 789 789 789 790 790 791 792 792 793 792 793 793 793 793 793 793 793 793 795 796 796 797 797 795 794 794 795 795 795 795 795 795 795 795 795 796 796 797 796 796 797 797 797 798
759 759 760 759 759 760 763 765 766 767 768 767 765 764 763 763 763 764 766 767 768 770 771 771 772 774 775 775 774 775 777 779 781 782 784 787 789 788 787 786 786 786 786 787 788 789 790 790 790 790 790 790 790 791 791 791 790 790 791 793 795 795 795 795 794 794 793 794 795 794 794 794 794 794 794 794 794 795 795 795 795 795 796 796 797
757 758 759 758 757 758 761 763 763 763 763 763 762 761 760 759 760 761 762 764 765 767 768 769 770 771 771 771 771 772 774 776 778 779 781 785 786 785 785 785 785 785 785 785 786 787 788 788 788 787 788 788 789 789 790 789 788 788 789 791 792 793 793 793 793 793 793 793 794 793 793 792 792 792 792 792 793 793 794 794 794 794 794 794 795
758 758 758 756 755 755 757 758 759 758 758 759 758 757 757 757 758 758 759 761 762 764 766 767 768 769 769 769 769 770 772 774 776 777 779 783 784 783 783 784 784 784 784 783 783 784 785 785 784 785 786 786 787 788 788 787 787 787 787 789 790 791 792 792 792 792 792 792 792 792 791 791 791 791 791 791 791 792 792 792 793 793 793 793 793
757 758 758 756 754 754 753 754 754 754 754 754 754 754 754 755 756 756 757 759 761 763 765 766 767 767 768 768 768 769 770 771 773 775 777 780 781 781 782 782 782 783 782 782 782 782 782 782 782 782 783 784 785 785 786 786 786 787 787 788 790 791 792 792 791 791 790 791 791 791 790 789 790 790 790 790 790 791 791 791 791 791 791 791 791
754 755 756 755 754 754 753 752 752 751 751 751 750 751 752 753 754 754 756 758 759 761 763 764 764 765 766 766 767 768 769 769 770 772 774 777 778 780 780 780 780 781 780 780 780 780 781 781 781 781 781 782 783 784 784 785 785 786 787 788 789 790 790 790 789 789 788 788 789 789 788 789 789 789 789 789 790 790 790 790 790 790 790 790 790
750 750 751 751 752 753 751 750 750 749 748 748 748 748 749 750 751 752 754 756 757 759 761 761 762 762 763 764 765 767 767 767 768 769 771 774 776 778 778 779 779 780 779 778 778 778 779 780 780 780 780 781 782 782 783 784 784 785 786 787 788 788 788 788 787 787 787 787 787 787 788 788 788 788 788 788 789 789 788 788 788 788 788 788 788
747 747 748 749 750 750 748 748 748 747 746 745 746 746 747 747 748 749 751 753 756 758 759 759 759 760 760 762 763 765 765 765 765 767 769 771 774 776 777 778 778 778 777 776 776 777 778 778 779 779 780 780 781 781 782 782 783 784 784 784 785 786 786 786 785 785 786 785 785 785 786 786 787 786 787 787 788 788 787 787 787 787 787 787 787
745 746 747 748 748 747 746 746 746 745 744 744 744 745 745 745 746 747 749 751 754 756 756 757 757 757 758 760 761 763 763 763 764 765 767 769 772 774 775 776 776 776 775 775 775 775 776 777 777 778 778 779 779 780 780 781 781 782 782 782 783 784 784 785 784 784 784 784 783 784 784 785 785 785 786 786 787 787 786 786 786 786 786 786 786